Winona, MN

3:34 PM CST on December 14, 2017 (GMT -0600)
Winona Municipal-Conrad

Weather History for KONA - February, 2014

Change the Weather History Date:

Monday, February 24, 2014

  Actual Average Record
Temperature  
Mean Temperature 10 °F -  
Max Temperature 17 °F 32 °F 53 °F (1998)
Min Temperature 3 °F 15 °F -20 °F (1993)
Degree Days  
Heating Degree Days 55    
Moisture  
Dew Point 2 °F    
Average Humidity 65    
Maximum Humidity 79    
Minimum Humidity 53    
Precipitation  
Precipitation 0.00 in - - ()
Sea Level Pressure  
Sea Level Pressure 30.29 in    
Wind  
Wind Speed 8 mph (WNW)    
Max Wind Speed 13 mph    
Max Gust Speed 21 mph    
Visibility 10 miles    
Events      
Averages and records for this station are not official NWS values.
T = Trace of Precipitation, MM = Missing Value Source: NWS Daily Summary

Daily Weather History Graph

Daily Weather History Graph

Search for Another Location

Airport or City:

Trip Planner

Search our weather history database for the weather conditions in past years. The results will help you decide how hot, cold, wet, or windy it might be!

Date:

Astronomy

Feb. 24, 2014 Rise Set
Actual Time 6:52 AM CST 5:48 PM CST
Civil Twilight 6:22 AM CST 6:17 PM CST
Nautical Twilight 5:49 AM CST 6:51 PM CST
Astronomical Twilight 5:16 AM CST 7:24 PM CST
Moon 2:57 AM CST (2/24) 12:43 PM CST (2/24)
Length of Visible Light 11h 54m
Length of Day
10h 56m
Waning Crescent, 28% of the Moon is Illuminated
Feb 24
Waning Crescent
Mar 1
New
Mar 8
First Quarter
Mar 16
Full
Mar 23
Last Quarter

Hourly Weather History & Observations

Time (CST) Temp. Windchill Dew Point Humidity Pressure Visibility Wind Dir Wind Speed Gust Speed Precip Events Conditions
12:19 AM 12.2 °F 0.7 °F 3.2 °F 67% 30.26 in 10.0 mi WNW 8.1 mph - N/A   Clear
12:39 AM 12.2 °F -0.2 °F 3.2 °F 67% 30.26 in 10.0 mi WNW 9.2 mph - N/A   Clear
12:58 AM 12.2 °F 1.7 °F 3.2 °F 67% 30.26 in 10.0 mi WNW 6.9 mph - N/A   Clear
1:19 AM 12.2 °F -0.2 °F 3.2 °F 67% 30.27 in 10.0 mi WNW 9.2 mph 16.1 mph N/A   Clear
1:39 AM 12.2 °F -0.2 °F 3.2 °F 67% 30.26 in 10.0 mi WNW 9.2 mph - N/A   Clear
1:58 AM 10.4 °F -1.5 °F 3.2 °F 73% 30.26 in 10.0 mi WNW 8.1 mph - N/A   Clear
2:19 AM 10.4 °F -0.4 °F 1.4 °F 67% 30.27 in 10.0 mi WNW 6.9 mph - N/A   Clear
2:39 AM 10.4 °F -1.5 °F 1.4 °F 67% 30.27 in 10.0 mi WNW 8.1 mph - N/A   Clear
2:59 AM 10.4 °F -1.5 °F 1.4 °F 67% 30.27 in 10.0 mi WNW 8.1 mph - N/A   Clear
3:19 AM 10.4 °F -2.4 °F 1.4 °F 67% 30.27 in 10.0 mi WNW 9.2 mph - N/A   Clear
3:39 AM 10.4 °F -2.4 °F 1.4 °F 67% 30.27 in 10.0 mi WNW 9.2 mph - N/A   Clear
3:59 AM 10.4 °F -3.3 °F 3.2 °F 73% 30.27 in 10.0 mi WNW 10.4 mph - N/A   Clear
4:19 AM 10.4 °F -4.1 °F 3.2 °F 73% 30.28 in 10.0 mi WNW 11.5 mph - N/A   Clear
4:39 AM 8.6 °F -4.7 °F 1.4 °F 73% 30.28 in 10.0 mi WNW 9.2 mph 20.7 mph N/A   Clear
4:59 AM 8.6 °F -6.3 °F 1.4 °F 73% 30.29 in 10.0 mi WNW 11.5 mph - N/A   Clear
5:19 AM 8.6 °F -5.5 °F 1.4 °F 73% 30.28 in 10.0 mi WNW 10.4 mph - N/A   Clear
5:39 AM 8.6 °F -5.5 °F 1.4 °F 73% 30.29 in 10.0 mi WNW 10.4 mph - N/A   Clear
5:59 AM 5.0 °F -8.1 °F -0.4 °F 78% 30.29 in 10.0 mi WNW 8.1 mph - N/A   Clear
6:19 AM 5.0 °F -11.6 °F -0.4 °F 78% 30.29 in 10.0 mi WNW 12.7 mph 17.3 mph N/A   Clear
6:38 AM 3.2 °F -11.3 °F -2.2 °F 78% 30.29 in 10.0 mi WNW 9.2 mph - N/A   Clear
6:59 AM 5.0 °F -9.1 °F -2.2 °F 72% 30.30 in 10.0 mi WNW 9.2 mph - N/A   Clear
7:18 AM 5.0 °F -8.1 °F -2.2 °F 72% 30.30 in 10.0 mi WNW 8.1 mph - N/A   Clear
7:39 AM 5.0 °F -4.1 °F -2.2 °F 72% 30.30 in 10.0 mi NW 4.6 mph - N/A   Clear
7:59 AM 5.0 °F -6.9 °F -4.0 °F 66% 30.30 in 10.0 mi WNW 6.9 mph - N/A   Clear
8:18 AM 5.0 °F -10.0 °F -2.2 °F 72% 30.32 in 10.0 mi NW 10.4 mph 17.3 mph N/A   Clear
8:39 AM 6.8 °F -4.8 °F -0.4 °F 72% 30.32 in 10.0 mi WNW 6.9 mph - N/A   Clear
8:59 AM 8.6 °F -2.6 °F -2.2 °F 62% 30.32 in 10.0 mi WNW 6.9 mph - N/A   Clear
9:18 AM 8.6 °F -2.6 °F -2.2 °F 62% 30.33 in 10.0 mi WNW 6.9 mph - N/A   Clear
9:39 AM 10.4 °F -1.5 °F -0.4 °F 62% 30.33 in 10.0 mi West 8.1 mph - N/A   Clear
9:59 AM 10.4 °F -2.4 °F -0.4 °F 62% 30.33 in 10.0 mi WNW 9.2 mph - N/A   Clear
10:19 AM 10.4 °F -3.3 °F -0.4 °F 62% 30.34 in 10.0 mi WNW 10.4 mph - N/A   Clear
10:39 AM 10.4 °F -2.4 °F -0.4 °F 62% 30.33 in 10.0 mi WNW 9.2 mph - N/A   Clear
10:59 AM 10.4 °F -1.5 °F -0.4 °F 62% 30.33 in 10.0 mi WNW 8.1 mph - N/A   Clear
11:19 AM 12.2 °F -0.2 °F 1.4 °F 62% 30.33 in 10.0 mi NW 9.2 mph - N/A   Clear
11:39 AM 14.0 °F 2.0 °F 1.4 °F 57% 30.32 in 10.0 mi WNW 9.2 mph - N/A   Clear
11:59 AM 14.0 °F 2.9 °F 3.2 °F 62% 30.32 in 10.0 mi NW 8.1 mph - N/A   Clear
12:19 PM 14.0 °F 2.9 °F 3.2 °F 62% 30.31 in 10.0 mi WNW 8.1 mph - N/A   Clear
12:38 PM 15.8 °F 5.1 °F 3.2 °F 58% 30.32 in 10.0 mi West 8.1 mph - N/A   Clear
12:59 PM 17.6 °F 7.3 °F 3.2 °F 53% 30.31 in 10.0 mi WNW 8.1 mph - N/A   Clear
1:19 PM 17.6 °F 9.3 °F 3.2 °F 53% 30.30 in 10.0 mi WNW 5.8 mph - N/A   Clear
1:39 PM 17.6 °F 8.2 °F 3.2 °F 53% 30.30 in 10.0 mi WNW 6.9 mph - N/A   Clear
1:59 PM 17.6 °F 8.2 °F 3.2 °F 53% 30.29 in 10.0 mi WNW 6.9 mph - N/A   Clear
2:19 PM 17.6 °F 7.3 °F 3.2 °F 53% 30.30 in 10.0 mi West 8.1 mph - N/A   Clear
2:39 PM 17.6 °F 6.4 °F 3.2 °F 53% 30.30 in 10.0 mi WNW 9.2 mph - N/A   Clear
2:59 PM 15.8 °F 4.2 °F 3.2 °F 58% 30.29 in 10.0 mi WNW 9.2 mph - N/A   Clear
3:19 PM 15.8 °F 5.1 °F 3.2 °F 58% 30.29 in 10.0 mi WNW 8.1 mph - N/A   Clear
3:39 PM 15.8 °F 5.1 °F 3.2 °F 58% 30.28 in 10.0 mi WNW 8.1 mph - N/A   Clear
3:59 PM 14.0 °F 2.9 °F 3.2 °F 62% 30.28 in 10.0 mi NW 8.1 mph - N/A   Clear
4:19 PM 15.8 °F 6.1 °F 3.2 °F 58% 30.28 in 10.0 mi WNW 6.9 mph - N/A   Clear
4:39 PM 15.8 °F 7.2 °F 3.2 °F 58% 30.28 in 10.0 mi West 5.8 mph - N/A   Clear
4:58 PM 14.0 °F 1.2 °F 3.2 °F 62% 30.27 in 10.0 mi WNW 10.4 mph - N/A   Clear
5:19 PM 14.0 °F 5.1 °F 1.4 °F 57% 30.27 in 10.0 mi WNW 5.8 mph - N/A   Clear
5:39 PM 14.0 °F 5.1 °F 3.2 °F 62% 30.27 in 10.0 mi WNW 5.8 mph - N/A   Clear
5:58 PM 14.0 °F 3.9 °F 3.2 °F 62% 30.27 in 10.0 mi WNW 6.9 mph - N/A   Clear
6:19 PM 14.0 °F 6.5 °F 3.2 °F 62% 30.27 in 10.0 mi WNW 4.6 mph - N/A   Clear
6:39 PM 14.0 °F 3.9 °F 3.2 °F 62% 30.28 in 10.0 mi WNW 6.9 mph - N/A   Clear
6:58 PM 14.0 °F 5.1 °F 3.2 °F 62% 30.29 in 10.0 mi WNW 5.8 mph - N/A   Clear
7:19 PM 14.0 °F 2.9 °F 5.0 °F 67% 30.30 in 10.0 mi WNW 8.1 mph - N/A   Scattered Clouds
7:39 PM 14.0 °F 3.9 °F 5.0 °F 67% 30.30 in 10.0 mi WNW 6.9 mph - N/A   Mostly Cloudy
7:58 PM 14.0 °F 2.0 °F 5.0 °F 67% 30.29 in 10.0 mi WNW 9.2 mph - N/A   Scattered Clouds
8:19 PM 14.0 °F 2.9 °F 5.0 °F 67% 30.30 in 10.0 mi NW 8.1 mph - N/A   Scattered Clouds
8:39 PM 14.0 °F 2.0 °F 3.2 °F 62% 30.29 in 10.0 mi NW 9.2 mph - N/A   Mostly Cloudy
8:58 PM 12.2 °F -0.2 °F 3.2 °F 67% 30.30 in 10.0 mi WNW 9.2 mph - N/A   Scattered Clouds
9:19 PM 12.2 °F 1.7 °F 3.2 °F 67% 30.30 in 10.0 mi WNW 6.9 mph - N/A   Scattered Clouds
9:38 PM 12.2 °F 0.7 °F 3.2 °F 67% 30.30 in 10.0 mi WNW 8.1 mph - N/A   Mostly Cloudy
9:59 PM 12.2 °F 4.3 °F 3.2 °F 67% 30.30 in 10.0 mi WNW 4.6 mph - N/A   Overcast
10:19 PM 12.2 °F 2.9 °F 3.2 °F 67% 30.30 in 10.0 mi WNW 5.8 mph - N/A   Overcast
10:38 PM 12.2 °F 1.7 °F 3.2 °F 67% 30.30 in 10.0 mi WNW 6.9 mph - N/A   Overcast
10:59 PM 12.2 °F 0.7 °F 5.0 °F 73% 30.31 in 10.0 mi WNW 8.1 mph - N/A   Overcast
11:19 PM 12.2 °F 2.9 °F 5.0 °F 73% 30.30 in 7.0 mi WNW 5.8 mph - N/A   Overcast
11:38 PM 12.2 °F 1.7 °F 5.0 °F 73% 30.30 in 7.0 mi WNW 6.9 mph - N/A   Overcast
11:59 PM 10.4 °F 0.8 °F 5.0 °F 79% 30.30 in 7.0 mi WNW 5.8 mph - N/A   Overcast